West Shokan, NY

3:07 PM EDT on April 25, 2015 (GMT -0400)
Bag End | | Change Station
CLOSE
Current Station
Personal Weather Station
Location: Boiceville, NY
Elevation: 1096 ft
Nearby Weather Stations

Elev 1096 ft 42.00 °N, 74.25 °W | Updated 26 seconds ago

Clear
Clear
56.8 °F
Feels Like 56.8 °F
N
3.8
Wind Variable Wind from West
Gusts 15.9 mph

Today
High -- | Low -- °F
--% Chance of Precip.
Yesterday
High -- | Low -- °F
Precip. -- in
6:01 AM 7:49 PM
Waxing Crescent, 48% visible
Pressure 29.73 in
Visibility 10.0 miles
Clouds Clear
Dew Point 31 °F
Humidity 37%
Rainfall 0.00 in
Snow Depth Not available.
UV 8 out of 12
Pollen 7.20 out of 12
Air Quality Not available.
Flu Activity Widespread
METAR KMGJ 251854Z AUTO 29010G18KT 10SM CLR 14/M03 A2973 RMK AO2 SLP068 T01391033 TSNO

More Conditions Fewer Conditions

Pressure 29.73 in
Visibility 10.0 miles
Clouds Clear
Dew Point 31 °F
Humidity 37%
Rainfall 0.00 in
Snow Depth Not available.
UV 8 out of 12
Pollen 7.20 out of 12
Air Quality Not available.
Flu Activity Widespread
METAR KMGJ 251854Z AUTO 29010G18KT 10SM CLR 14/M03 A2973 RMK AO2 SLP068 T01391033 TSNO

More Conditions Fewer Conditions

10-Day Weather Forecast

Almanac

Astronomy

Apr. 25, 2015 Rise Set
Actual Time
Civil Twilight
Nautical Twilight
Astronomical Twilight
Moon
Length of Visible Light
Length of Day
Tomorrow will be .
, % of the Moon is Illuminated

Today's Extremes

State Highs State Lows

Community

WunderPhotos

Upload Photos

1,816,768 photos uploaded!

WunderBlogs® & News

Nearby

Air Quality

  Air Quality AQ Index Pollutant
Not available.

Snow Depth

Station Depth Elevation

Earthquake Activity

City Distance Mag. Time & Date
Minimum magnitude displayed is 2.5.

Coastal Water Temperatures

Place Temperature

Stations

Nearby Weather Stations

Station Location Temp. Windchill Dew Point Humidity Wind Precip. Elev Updated Type